sat.trackr.live / text

‹ back to catalog

STARLINK-4371

NORAD 53232 · 2022-084AV

PAYLOAD ACTIVE UNKNOWN

§ Identity

Operator
Country
US
Launch date
2022-07-22
Launch site
AFWTR
Launch vehicle
Mass (kg)
RCS (m²)

Purposes: comms

External: N2YO · Heavens-Above · Gunter

§ Orbital elements

Epoch: 2026-05-25T03:22:52.762080Z

Period
95.64 min
Inclination
97.4505°
Eccentricity
0.0000691
Mean motion
15.05652922 rev/d
Perigee alt
549.0 km
Apogee alt
550.0 km
Semi-major
6,927.6 km
B*
3.4963e-5
RAAN
205.0569°
Arg perigee
30.9408°
Mean anomaly
329.1860°
Rev number
21,081

§ Raw data

STARLINK-43711 53232U 22084AV  26145.14088845  .00000446  00000+0  34963-4 0  99992 53232  97.4505 205.0569 0000691  30.9408 329.1860 15.05652922210812

JSON: /api/v1/satellites/53232 · /tle

For live sub-satellite position, see the globe view (requires WebGL).

§ Visibility from observer

Set your observer location to see the next 7 days of passes ≥ 10°. The values pass through the URL so the page stays shareable.

No JS? Fill the form by hand. The geolocation button needs JavaScript.